Wind_Speed
39 39 41 42 42 43 45 45 45 44 44 45 45 46 46 45 45 46 47 47 48 48 49 50 49 50 50 50 50 49 48 48 46 45 45 44 44 43 42 42 42 41
41 42 43 44 44 45 45 46 45 44 44 45 46 46 45 45 45 46 48 48 49 49 50 50 50 51 51 52 51 50 48 47 46 46 46 46 46 45 44 44 43 44
44 44 45 45 44 45 46 45 45 44 45 46 46 47 46 46 46 47 49 50 50 50 50 51 51 52 53 52 51 50 49 48 47 48 48 48 47 47 46 45 45 45
47 46 45 44 44 45 46 46 46 46 46 47 47 48 47 47 47 48 50 51 51 52 52 52 52 53 53 52 51 50 49 49 49 50 50 50 49 48 48 47 47 47
48 46 45 45 45 46 47 48 48 48 48 49 49 49 48 49 49 50 52 52 52 52 53 53 53 53 53 52 51 50 50 51 52 52 52 52 51 51 50 49 50 49
48 46 46 46 47 48 49 49 50 50 50 50 50 49 49 50 51 52 53 54 54 54 54 54 53 53 53 52 52 52 53 54 54 54 54 54 53 53 52 52 52 52
48 47 47 48 48 49 50 51 51 51 51 51 51 50 51 51 52 54 54 55 55 55 55 54 54 53 53 53 54 54 55 56 56 56 56 55 55 55 55 55 55 54
48 48 48 49 49 50 52 52 52 52 52 52 52 52 52 53 54 55 55 56 56 56 55 55 54 54 54 55 55 55 56 58 58 57 57 57 57 57 57 57 57 56
48 49 49 49 50 52 53 53 52 52 52 52 52 53 54 54 55 56 57 57 56 55 55 55 54 54 55 55 56 57 58 59 59 59 58 59 59 59 59 58 57 57
49 50 50 51 52 53 53 53 52 53 53 53 54 55 55 56 57 57 57 56 56 55 55 55 55 55 56 56 58 59 60 61 60 60 60 61 61 61 60 59 58 57
51 51 52 53 54 54 53 53 53 54 54 55 55 56 57 57 58 57 56 56 55 55 54 55 55 56 57 58 59 61 62 62 62 62 62 63 62 61 60 58 57 57
52 53 54 55 55 54 53 53 54 54 55 55 56 57 57 58 57 56 55 55 55 55 55 56 57 57 58 59 61 62 63 63 63 64 64 64 63 61 59 57 57 56
54 55 55 55 54 53 53 53 53 54 55 56 57 57 57 57 56 55 55 55 55 56 57 57 58 59 59 60 62 63 63 64 65 65 65 64 63 60 58 57 57 56
56 56 55 53 53 52 52 53 54 55 56 57 57 57 57 56 56 56 56 56 57 58 58 59 59 60 61 62 63 64 65 65 66 66 65 63 61 59 58 56 54 53
56 55 54 53 53 53 53 54 56 57 58 58 58 57 57 57 56 57 57 58 59 60 60 61 61 61 62 64 65 65 66 66 66 65 63 60 59 56 53 51 50 50
55 54 54 54 55 56 57 57 58 59 60 59 59 58 58 57 58 58 59 60 61 62 62 62 63 64 65 66 66 66 66 66 65 63 60 58 56 53 50 49 48 49
56 56 56 57 58 59 60 60 61 61 60 60 59 59 58 59 60 61 62 63 63 63 64 65 66 66 67 67 67 67 66 64 62 59 58 58 57 55 53 50 49 48
58 59 60 60 61 61 62 62 62 62 61 60 60 60 61 62 63 64 64 64 65 65 66 67 67 68 68 67 67 65 63 60 58 57 56 56 55 53 52 50 49 49
61 62 62 63 63 64 64 64 63 62 61 62 62 63 64 65 66 66 66 66 67 67 68 68 69 68 68 66 64 61 59 56 54 53 52 52 51 50 50 50 50 50
63 64 65 65 65 65 65 64 63 62 62 63 65 66 67 67 68 68 68 68 68 69 69 70 69 68 65 62 59 56 54 52 50 49 47 47 48 48 48 49 49 50
65 66 67 67 66 65 64 63 62 63 64 66 67 68 69 69 69 69 69 69 70 70 70 69 67 64 61 58 55 53 51 50 48 46 44 44 45 45 46 47 48 49
68 68 67 66 65 64 63 63 63 64 66 68 69 69 69 70 70 70 70 70 71 70 68 65 63 60 58 55 53 52 51 50 48 46 44 44 43 42 42 43 45 47
68 67 66 65 64 64 63 63 65 67 68 69 70 70 70 70 70 70 71 70 69 67 64 62 60 57 56 54 53 52 52 51 49 47 46 44 42 41 41 42 43 44
67 66 66 65 65 64 64 66 67 69 70 70 70 70 70 71 71 71 70 67 65 63 62 60 58 56 55 53 53 53 52 51 49 47 46 45 43 42 41 42 43 44
66 66 65 65 65 66 67 69 70 70 70 70 70 71 71 72 72 70 66 64 62 61 60 59 58 56 55 53 53 53 52 51 49 47 47 46 45 43 42 42 43 43
65 65 65 65 66 68 70 71 71 71 71 71 72 72 73 73 70 67 64 62 61 60 59 59 58 56 55 54 53 53 52 51 49 47 46 47 46 45 43 42 42 42
Wind_Direction
299 299 298 298 297 297 297 297 297 297 298 299 300 300 300 300 301 303 304 305 306 306 306 306 305 304 304 304 304 303 302 302 301 300 300 300 300 300 299 298 298 299
297 297 297 296 296 296 296 295 296 297 297 298 300 301 301 301 303 304 304 305 306 306 305 305 304 304 303 303 303 302 302 302 300 300 300 300 300 300 299 298 298 298
294 295 295 295 296 295 295 295 296 296 297 299 301 302 302 303 304 304 305 305 305 305 304 304 303 303 303 303 302 302 302 301 300 300 300 300 299 299 298 298 298 298
293 294 296 296 296 296 297 297 297 297 299 301 303 303 303 303 304 304 304 304 304 304 303 303 303 303 303 303 302 301 301 301 301 302 301 300 300 299 298 298 298 298
294 295 296 297 297 298 299 299 299 299 301 303 303 303 303 303 303 303 303 303 303 303 303 303 304 304 303 303 302 301 300 301 302 303 302 301 300 299 299 299 298 298
294 295 296 296 298 298 299 299 300 300 301 302 303 302 302 302 302 302 303 303 303 303 304 304 304 304 304 302 301 300 300 301 303 303 302 301 300 300 300 300 300 299
293 294 295 296 297 298 299 299 300 300 300 301 301 301 301 301 302 302 302 303 303 303 304 304 304 304 303 302 301 300 301 302 303 303 302 301 301 301 301 301 301 300
291 292 293 295 296 297 298 298 299 299 299 299 299 299 300 301 301 302 302 303 303 303 304 304 304 303 302 301 300 301 301 302 302 302 301 301 301 301 301 301 300 299
289 290 292 293 294 295 297 297 297 297 297 298 298 299 300 301 301 301 302 302 303 303 304 304 303 302 301 301 301 301 302 302 302 301 300 300 300 300 300 300 299 298
289 290 291 292 293 295 296 295 295 296 297 298 299 300 300 300 301 302 302 303 303 303 304 303 303 302 301 301 302 302 302 301 301 300 300 300 300 300 300 299 297 295
289 290 290 291 293 294 294 294 294 296 297 298 299 299 300 300 301 302 303 304 304 304 304 303 302 302 302 302 302 302 302 300 300 299 300 300 300 299 298 297 294 292
289 289 289 291 292 293 293 294 295 296 297 298 299 300 301 302 303 304 305 305 305 304 304 303 302 302 302 302 302 302 301 300 300 300 300 299 299 298 297 294 292 289
288 288 290 291 292 292 293 295 296 296 297 299 300 301 302 304 305 306 306 306 305 304 303 303 302 302 302 302 302 301 301 300 300 300 300 299 298 297 295 293 290 287
289 290 291 292 293 294 295 296 297 298 299 301 302 304 306 307 307 307 306 306 305 304 303 303 303 302 302 302 301 301 301 301 301 300 299 298 297 295 293 290 287 284
291 292 293 295 296 297 297 298 299 301 302 304 305 307 308 308 308 307 306 305 305 304 304 303 303 302 302 302 302 302 302 301 301 300 298 297 294 292 290 287 284 282
294 295 297 298 298 299 300 301 302 304 305 306 308 309 309 308 307 306 306 305 305 305 304 304 303 302 302 303 303 303 302 301 300 298 296 294 291 290 290 287 282 280
297 298 298 299 300 301 302 303 304 305 306 307 308 308 308 307 306 306 305 305 305 305 304 304 304 304 304 304 304 303 302 300 299 297 294 291 289 289 289 285 281 280
298 299 299 300 301 301 302 303 304 305 306 307 307 307 307 306 306 306 305 305 305 305 305 305 305 305 305 304 303 302 300 299 298 297 294 291 288 287 286 283 281 280
298 299 299 300 300 301 302 303 304 305 305 305 306 306 306 306 306 305 305 305 305 305 305 306 306 305 304 302 301 299 299 299 298 296 294 290 287 284 282 281 280 280
298 299 299 299 300 301 302 303 303 303 304 304 305 305 305 305 305 305 305 305 305 306 306 307 306 303 301 299 298 298 299 298 298 297 294 291 287 283 281 280 279 279
298 298 298 299 300 301 301 301 302 302 303 304 305 305 305 305 305 304 305 305 306 307 307 305 303 300 298 297 297 298 298 297 297 297 295 292 289 287 284 282 280 280
297 298 298 299 299 300 300 300 301 302 303 304 304 304 304 304 304 304 305 306 307 306 305 302 299 297 297 297 297 297 295 295 297 297 296 294 291 289 287 284 282 280
297 297 297 298 298 299 299 300 301 302 303 304 304 303 303 303 304 305 306 306 305 304 301 299 297 296 296 296 296 295 294 295 296 297 296 294 292 289 288 286 283 281
296 296 296 296 297 298 299 300 301 302 303 303 303 303 303 304 305 306 306 305 303 300 298 297 297 297 296 295 295 294 294 295 296 295 295 294 291 289 288 287 285 283
295 295 295 296 297 298 299 301 301 302 302 302 302 303 304 305 306 305 304 302 300 299 298 297 297 296 294 294 295 295 294 295 295 294 293 292 290 288 288 287 285 283
294 294 295 296 298 299 300 301 301 301 301 302 303 304 305 305 305 304 302 301 300 299 299 298 297 295 293 294 295 295 295 295 294 293 292 291 289 288 288 286 285 283
Height
5716 5715 5713 5712 5711 5709 5707 5706 5705 5704 5702 5701 5699 5698 5696 5694 5692 5690 5687 5685 5683 5682 5679 5678 5676 5674 5672 5670 5668 5667 5665 5663 5661 5659 5658 5656 5654 5653 5651 5649 5647 5646
5711 5710 5708 5707 5706 5704 5703 5701 5700 5699 5697 5696 5694 5692 5691 5689 5687 5685 5682 5680 5678 5677 5675 5672 5670 5668 5666 5664 5662 5660 5659 5657 5655 5653 5651 5649 5648 5646 5644 5642 5640 5638
5706 5705 5703 5702 5701 5699 5698 5696 5695 5694 5692 5690 5688 5686 5684 5683 5682 5679 5677 5675 5673 5671 5669 5667 5665 5662 5660 5658 5656 5654 5652 5651 5649 5647 5645 5643 5641 5639 5636 5634 5633 5631
5701 5699 5698 5697 5695 5694 5692 5691 5689 5688 5686 5684 5682 5680 5678 5677 5675 5673 5671 5669 5667 5665 5663 5661 5659 5656 5653 5652 5650 5648 5646 5644 5642 5640 5638 5635 5633 5631 5629 5627 5625 5623
5695 5694 5692 5691 5689 5687 5686 5684 5683 5681 5679 5677 5676 5674 5672 5670 5668 5667 5665 5663 5661 5659 5656 5654 5652 5649 5647 5645 5643 5641 5639 5637 5635 5633 5631 5628 5626 5624 5622 5620 5618 5615
5690 5688 5687 5685 5683 5681 5680 5678 5676 5674 5673 5671 5669 5668 5665 5663 5662 5660 5658 5656 5654 5652 5649 5647 5644 5642 5640 5638 5636 5634 5632 5630 5628 5625 5623 5620 5618 5616 5614 5612 5610 5608
5684 5683 5681 5679 5677 5675 5674 5672 5670 5668 5667 5665 5663 5661 5659 5657 5655 5653 5651 5649 5646 5644 5642 5640 5637 5635 5632 5630 5628 5626 5624 5622 5620 5618 5614 5612 5610 5608 5606 5603 5601 5599
5679 5677 5675 5673 5671 5670 5668 5666 5665 5663 5661 5659 5657 5655 5653 5650 5648 5646 5643 5641 5639 5636 5634 5632 5630 5628 5625 5623 5621 5619 5617 5614 5612 5610 5607 5604 5602 5599 5597 5595 5592 5590
5674 5672 5670 5668 5666 5664 5662 5660 5658 5656 5654 5653 5650 5648 5646 5643 5641 5639 5636 5634 5632 5629 5627 5624 5622 5620 5618 5615 5613 5611 5609 5606 5603 5601 5599 5596 5593 5591 5589 5586 5584 5581
5668 5666 5664 5662 5660 5658 5656 5654 5652 5650 5648 5646 5644 5642 5639 5636 5634 5632 5629 5627 5624 5622 5619 5617 5615 5612 5610 5608 5605 5603 5600 5598 5595 5593 5590 5588 5585 5583 5580 5577 5575 5573
5663 5661 5658 5656 5654 5652 5650 5647 5645 5643 5641 5639 5637 5635 5632 5629 5627 5624 5621 5619 5616 5614 5611 5609 5607 5604 5602 5599 5597 5594 5592 5589 5587 5585 5582 5579 5577 5574 5571 5569 5566 5564
5657 5654 5652 5650 5648 5645 5643 5641 5639 5637 5634 5632 5630 5627 5625 5622 5619 5616 5613 5611 5608 5606 5603 5601 5599 5596 5594 5591 5589 5586 5583 5581 5579 5577 5574 5571 5568 5565 5562 5560 5558 5555
5650 5648 5646 5643 5641 5639 5636 5634 5632 5630 5627 5625 5622 5620 5617 5614 5611 5608 5605 5603 5600 5598 5595 5593 5591 5588 5585 5583 5580 5578 5575 5573 5570 5568 5565 5562 5559 5556 5554 5551 5549 5546
5643 5641 5639 5637 5634 5632 5630 5627 5625 5622 5620 5617 5614 5611 5608 5605 5602 5600 5597 5595 5592 5590 5587 5585 5582 5579 5577 5574 5572 5569 5567 5564 5561 5559 5556 5553 5550 5547 5545 5542 5540 5538
5637 5635 5632 5630 5627 5625 5622 5619 5617 5614 5611 5608 5605 5602 5599 5596 5594 5592 5589 5587 5584 5582 5579 5576 5574 5571 5568 5566 5563 5561 5558 5555 5552 5549 5546 5544 5541 5538 5536 5534 5532 5530
5630 5627 5625 5622 5619 5617 5614 5611 5608 5605 5602 5599 5596 5593 5591 5588 5586 5584 5581 5579 5576 5573 5571 5568 5565 5562 5559 5557 5555 5552 5549 5546 5543 5540 5537 5535 5533 5530 5528 5526 5524 5522
5622 5619 5617 5614 5611 5609 5606 5603 5600 5597 5594 5591 5588 5586 5584 5581 5579 5576 5573 5570 5568 5565 5562 5559 5557 5553 5551 5548 5545 5542 5539 5537 5534 5531 5529 5526 5524 5522 5520 5518 5516 5515
5614 5611 5609 5606 5604 5601 5598 5595 5592 5589 5586 5584 5581 5579 5576 5574 5571 5568 5565 5562 5559 5556 5554 5551 5548 5545 5542 5539 5536 5533 5530 5528 5525 5523 5520 5517 5515 5514 5512 5510 5509 5508
5606 5604 5601 5599 5596 5593 5590 5587 5584 5581 5579 5576 5574 5571 5568 5566 5562 5559 5556 5553 5550 5548 5545 5542 5539 5536 5532 5529 5526 5524 5522 5520 5517 5515 5512 5509 5507 5505 5503 5502 5501 5500
5599 5596 5594 5591 5588 5585 5582 5579 5577 5574 5572 5569 5567 5564 5560 5557 5554 5551 5548 5544 5542 5539 5537 5534 5530 5526 5523 5520 5518 5516 5514 5512 5510 5507 5504 5501 5499 5497 5495 5494 5493 5492
5591 5588 5586 5583 5580 5578 5575 5572 5569 5567 5564 5562 5559 5556 5552 5549 5545 5542 5540 5536 5533 5531 5528 5525 5521 5517 5514 5512 5510 5508 5506 5504 5502 5500 5498 5495 5492 5490 5488 5487 5486 5485
5583 5580 5577 5575 5572 5570 5567 5564 5561 5559 5556 5553 5550 5547 5544 5541 5538 5534 5532 5528 5525 5522 5519 5516 5512 5509 5506 5504 5502 5501 5499 5497 5495 5493 5491 5488 5486 5484 5482 5480 5479 5478
5575 5572 5570 5567 5565 5562 5559 5556 5553 5550 5548 5545 5542 5539 5536 5533 5530 5526 5523 5520 5516 5513 5510 5507 5504 5501 5499 5497 5495 5493 5491 5490 5488 5486 5484 5481 5479 5477 5475 5474 5472 5471
5568 5565 5562 5559 5557 5554 5551 5548 5545 5542 5539 5536 5533 5530 5527 5524 5521 5518 5515 5512 5508 5504 5501 5499 5497 5494 5492 5489 5487 5485 5483 5482 5481 5479 5477 5474 5472 5471 5469 5467 5466 5464
5560 5557 5555 5552 5549 5546 5543 5540 5537 5534 5531 5528 5525 5521 5518 5515 5512 5509 5506 5503 5499 5496 5493 5491 5489 5487 5484 5482 5480 5477 5475 5474 5473 5472 5470 5467 5465 5464 5462 5461 5459 5457
5552 5549 5546 5544 5541 5538 5534 5531 5528 5525 5522 5519 5516 5513 5510 5507 5504 5501 5497 5494 5491 5488 5485 5483 5481 5479 5476 5474 5472 5470 5468 5466 5465 5464 5462 5460 5458 5457 5455 5454 5452 5450